Change the Weather History Date:

Friday, January 11, 2013

  Actual Average Record
Temperature  
Mean Temperature 66 °F 44 °F  
Max Temperature 69 °F 56 °F 82 °F (1949)
Min Temperature 62 °F 33 °F 3 °F (1962)
Degree Days  
Heating Degree Days 0 21  
Month to date heating degree days 176 224  
Since 1 July heating degree days 1132 1232  
Cooling Degree Days 1 0  
Month to date cooling degree days 3 0  
Year to date cooling degree days 3 0  
Growing Degree Days 16 (Base 50)    
Moisture  
Dew Point 65 °F    
Average Humidity 97    
Maximum Humidity 100    
Minimum Humidity 93    
Precipitation  
Precipitation 1.29 in 0.15 in 2.51 in (1993)
Month to date precipitation 4.26 1.58  
Year to date precipitation 4.26 1.58  
Sea Level Pressure  
Sea Level Pressure 30.06 in    
Wind  
Wind Speed 6 mph (South)    
Max Wind Speed 16 mph    
Max Gust Speed 18 mph    
Visibility 5 miles    
Events Rain    
T = Trace of Precipitation, MM = Missing Value Source: NWS Daily Summary

Daily Weather History Graph

Daily Weather History Graph

Search for Another Location

Airport or City:

Trip Planner

Search our weather history database for the weather conditions in past years. The results will help you decide how hot, cold, wet, or windy it might be!

Date:

Astronomy

Jan. 11, 2013 Rise Set
Actual Time 6:57 AM CST 5:09 PM CST
Civil Twilight 6:30 AM CST 5:36 PM CST
Nautical Twilight 6:00 AM CST 6:06 PM CST
Astronomical Twilight 5:30 AM CST 6:35 PM CST
Moon 6:32 AM CST (1/11) 5:23 PM CST (1/11)
Length of Visible Light 11h 05m
Length of Day
10h 12m
Waning Crescent, 0% of the Moon is Illuminated
Jan 11
Waning Crescent
Jan 11
New
Jan 18
First Quarter
Jan 26
Full
Feb 3
Last Quarter

Hourly Weather History & Observations

Time (CST) Temp. Dew Point Humidity Pressure Visibility Wind Dir Wind Speed Gust Speed Precip Events Conditions
12:14 AM 64.4 °F 62.6 °F 94% 30.08 in 10.0 mi South 8.1 mph - N/A   Overcast
12:35 AM 62.6 °F 62.6 °F 100% 30.08 in 10.0 mi South 10.4 mph - N/A   Overcast
12:58 AM 63.0 °F 62.1 °F 97% 30.07 in 10.0 mi South 10.4 mph - N/A   Overcast
1:58 AM 63.0 °F 61.0 °F 93% 30.07 in 10.0 mi South 8.1 mph - N/A   Overcast
2:18 AM 62.6 °F 60.8 °F 94% 30.08 in 10.0 mi South 9.2 mph - N/A   Overcast
2:58 AM 63.0 °F 61.0 °F 93% 30.07 in 8.0 mi South 10.4 mph - N/A   Overcast
3:05 AM 62.6 °F 60.8 °F 94% 30.08 in 6.0 mi South 9.2 mph - N/A   Overcast
3:22 AM 62.6 °F 60.8 °F 94% 30.07 in 5.0 mi SSW 8.1 mph - 0.01 in   Overcast
3:58 AM 62.1 °F 61.0 °F 96% 30.06 in 4.0 mi South 8.1 mph - 0.01 in   Overcast
4:58 AM 62.1 °F 62.1 °F 100% 30.05 in 6.0 mi South 9.2 mph - N/A   Overcast
5:58 AM 63.0 °F 62.1 °F 97% 30.06 in 8.0 mi SSW 5.8 mph - N/A   Overcast
6:58 AM 62.1 °F 62.1 °F 100% 30.09 in 8.0 mi SSW 4.6 mph - N/A   Overcast
7:58 AM 63.0 °F 63.0 °F 100% 30.09 in 3.0 mi South 5.8 mph - 0.00 in Rain Light Rain
8:05 AM 62.6 °F 62.6 °F 100% 30.09 in 2.5 mi South 5.8 mph - 0.00 in   Overcast
8:28 AM 62.6 °F 62.6 °F 100% 30.10 in 1.8 mi South 5.8 mph - 0.04 in Rain Rain
8:34 AM 64.4 °F 62.6 °F 94% 30.11 in 3.0 mi South 5.8 mph - 0.04 in Rain Light Rain
8:58 AM 64.4 °F 64.4 °F 100% 30.11 in 5.0 mi South 3.5 mph - N/A Rain Light Rain
9:58 AM 64.9 °F 64.0 °F 97% 30.11 in 10.0 mi SSW 6.9 mph - 0.02 in   Overcast
10:19 AM 64.4 °F 64.4 °F 100% 30.12 in 2.5 mi SSW 6.9 mph - 0.02 in Rain Light Rain
10:29 AM 64.4 °F 64.4 °F 100% 30.11 in 4.0 mi South 6.9 mph - 0.03 in Rain Light Rain
10:58 AM 64.9 °F 64.9 °F 100% 30.10 in 4.0 mi SSW 6.9 mph - 0.04 in Rain Light Rain
11:09 AM 66.2 °F 64.4 °F 94% 30.10 in 2.5 mi South 6.9 mph - 0.01 in Rain Light Rain
11:22 AM 66.2 °F 64.4 °F 94% 30.10 in 1.5 mi SSW 6.9 mph - 0.05 in Rain Rain
11:44 AM 66.2 °F 66.2 °F 100% 30.08 in 2.5 mi South 5.8 mph - 0.13 in Rain Rain
11:48 AM 66.2 °F 66.2 °F 100% 30.09 in 3.0 mi South 5.8 mph - 0.13 in Rain Light Rain
11:55 AM 66.2 °F 66.2 °F 100% 30.08 in 2.0 mi South 4.6 mph - N/A Rain Rain
11:58 AM 66.2 °F 66.2 °F 100% 30.08 in 2.5 mi South 5.8 mph - N/A Rain Light Rain
12:05 PM 66.2 °F 66.2 °F 100% 30.08 in 4.0 mi SSW 3.5 mph - 0.00 in Rain Light Rain
12:24 PM 66.2 °F 66.2 °F 100% 30.07 in 7.0 mi South 3.5 mph - 0.01 in   Overcast
12:36 PM 66.2 °F 66.2 °F 100% 30.07 in 2.5 mi South 4.6 mph - N/A Rain Light Rain
12:44 PM 66.2 °F 66.2 °F 100% 30.06 in 1.2 mi South 3.5 mph - 0.09 in Rain Rain
12:49 PM 66.2 °F 66.2 °F 100% 30.06 in 4.0 mi South 3.5 mph - 0.09 in Rain Light Rain
12:58 PM 66.9 °F 66.0 °F 97% 30.05 in 10.0 mi Calm Calm - 0.09 in   Overcast
1:11 PM 66.2 °F 66.2 °F 100% 30.05 in 10.0 mi South 3.5 mph - 0.00 in   Overcast
1:21 PM 66.2 °F 66.2 °F 100% 30.05 in 8.0 mi South 4.6 mph - 0.00 in Rain Light Rain
1:39 PM 66.2 °F 66.2 °F 100% 30.05 in 2.0 mi Calm Calm - 0.03 in Rain Heavy Rain
1:47 PM 66.2 °F 66.2 °F 100% 30.05 in 2.0 mi South 3.5 mph - 0.09 in Rain Rain
1:58 PM 66.9 °F 66.0 °F 97% 30.04 in 2.0 mi Calm Calm - 0.11 in Rain Light Rain
2:26 PM 66.2 °F 66.2 °F 100% 30.04 in 1.2 mi Calm Calm - 0.14 in Rain Heavy Rain
2:43 PM 66.2 °F 66.2 °F 100% 30.04 in 1.8 mi Calm Calm - 0.21 in Rain Light Rain
2:47 PM 66.2 °F 66.2 °F 100% 30.04 in 2.0 mi Calm Calm - 0.23 in Rain Rain
2:58 PM 66.9 °F 66.9 °F 100% 30.04 in 2.0 mi Calm Calm - 0.25 in Rain Rain
3:29 PM 66.2 °F 66.2 °F 100% 30.04 in 1.5 mi West 3.5 mph - 0.09 in Rain Rain
3:32 PM 66.2 °F 66.2 °F 100% 30.04 in 1.8 mi Calm Calm - 0.09 in Rain Light Rain
3:47 PM 66.2 °F 66.2 °F 100% 30.04 in 6.0 mi Calm Calm - 0.10 in Rain Light Rain
3:58 PM 66.9 °F 66.9 °F 100% 30.04 in 4.0 mi Calm Calm - 0.10 in Rain Light Rain
4:33 PM 66.2 °F 66.2 °F 100% 30.03 in 2.0 mi SE 8.1 mph - 0.00 in Rain Light Rain
4:51 PM 68.0 °F 66.2 °F 94% 30.03 in 8.0 mi South 10.4 mph - 0.01 in Rain Light Rain
4:58 PM 68.0 °F 66.9 °F 96% 30.03 in 10.0 mi South 12.7 mph - 0.01 in   Overcast
5:58 PM 64.9 °F 64.9 °F 100% 30.04 in 10.0 mi South 4.6 mph - 0.00 in   Partly Cloudy
6:31 PM 64.4 °F 64.4 °F 100% 30.06 in 8.0 mi SSW 5.8 mph - N/A   Overcast
6:54 PM 66.2 °F 66.2 °F 100% 30.06 in 5.0 mi South 6.9 mph - 0.01 in Rain Light Rain
6:58 PM 66.0 °F 66.0 °F 100% 30.06 in 2.5 mi SSW 6.9 mph - 0.05 in Rain Heavy Rain
7:08 PM 66.2 °F 66.2 °F 100% 30.06 in 3.0 mi SSW 4.6 mph - 0.06 in Rain Light Rain
7:15 PM 66.2 °F 66.2 °F 100% 30.06 in 4.0 mi South 4.6 mph - 0.07 in Rain Light Rain
7:35 PM 66.2 °F 66.2 °F 100% 30.06 in 5.0 mi SSE 5.8 mph - 0.10 in Rain Light Rain
7:45 PM 66.2 °F 66.2 °F 100% 30.06 in 3.0 mi SW 4.6 mph - 0.12 in Rain Heavy Rain
7:48 PM 66.2 °F 66.2 °F 100% 30.06 in 2.5 mi South 3.5 mph - 0.13 in Rain Rain
7:58 PM 66.0 °F 66.0 °F 100% 30.05 in 3.0 mi South 3.5 mph - 0.19 in Rain Heavy Rain
8:05 PM 66.2 °F 66.2 °F 100% 30.06 in 1.2 mi South 6.9 mph - 0.07 in Rain Heavy Rain
8:16 PM 66.2 °F 66.2 °F 100% 30.04 in 3.0 mi ESE 4.6 mph - 0.19 in Rain Rain
8:51 PM 66.2 °F 66.2 °F 100% 30.06 in 10.0 mi South 6.9 mph - 0.20 in   Overcast
8:58 PM 68.0 °F 66.9 °F 96% 30.05 in 10.0 mi South 9.2 mph - 0.20 in   Overcast
9:37 PM 68.0 °F 66.2 °F 94% 30.05 in 10.0 mi South 9.2 mph - N/A   Overcast
9:51 PM 68.0 °F 66.2 °F 94% 30.05 in 10.0 mi South 9.2 mph - N/A   Overcast
9:58 PM 68.0 °F 66.9 °F 96% 30.05 in 10.0 mi South 10.4 mph - N/A   Overcast
10:49 PM 68.0 °F 66.2 °F 94% 30.05 in 10.0 mi South 10.4 mph - 0.00 in   Overcast
11:07 PM 68.0 °F 66.2 °F 94% 30.06 in 10.0 mi South 8.1 mph - 0.00 in Rain Light Rain
11:58 PM 68.0 °F 66.9 °F 96% 30.04 in 10.0 mi South 8.1 mph - 0.01 in Rain Light Rain